Lapse_Rate
7.4 6.5 6.5 6.5 6.5 6.5 6.5 6.5 6.5 6.5 6.5 6.5 6.5 6.5 6.5 7.1 7.1 6.9 7.4 7.7 8.1 8.3 8.9 9.2 9.4 9.6 9.6 9.5 9.4 9.4 9.1 8.9 9.6 9.6 9.6 9.6 9.6 9.8 9.9 9.7 9.2 8.4 9.4 8.3
6.5 6.5 6.5 6.5 6.5 6.5 6.5 6.5 6.5 6.5 6.5 6.5 6.5 6.5 6.5 6.8 6.9 6.9 7.3 7.9 8.0 8.4 8.7 8.9 9.2 9.4 9.5 9.4 9.4 9.2 9.1 8.5 9.4 9.8 9.7 9.8 9.7 9.9 9.9 9.7 9.5 9.5 9.6 8.8
6.5 6.5 6.6 6.5 6.5 6.5 6.5 6.5 6.5 6.5 6.5 6.5 6.5 6.5 6.5 6.6 7.1 7.0 8.0 8.2 8.4 8.3 8.5 8.7 8.9 9.2 9.4 9.3 9.3 9.3 9.3 9.0 9.1 9.6 9.7 9.4 8.5 8.5 9.4 9.6 9.8 9.5 8.8 9.1
6.5 6.7 6.5 6.5 6.5 6.5 6.5 6.5 6.5 6.5 6.5 6.5 6.5 6.5 6.5 6.5 6.5 6.8 7.6 8.0 8.2 8.3 8.6 8.8 9.0 9.1 9.3 9.3 9.5 9.4 9.2 8.8 8.5 9.3 9.5 9.2 9.3 9.2 9.6 9.7 9.8 9.9 9.2 8.7
6.5 6.5 6.5 6.5 6.5 6.5 6.5 6.5 6.5 6.5 6.5 6.5 6.5 6.5 6.5 6.5 6.5 6.5 7.2 7.8 8.3 8.5 8.6 8.6 8.9 9.1 9.4 9.5 9.6 9.6 9.2 8.1 9.2 8.8 9.3 8.3 9.1 9.5 9.7 9.7 9.3 9.4 8.4 8.1
6.5 7.3 6.6 6.5 6.5 6.5 6.5 6.5 6.5 6.5 6.5 6.5 6.5 6.5 6.5 6.5 6.5 6.5 7.2 7.8 8.0 8.4 8.6 8.8 9.1 9.2 9.3 9.6 9.6 9.6 9.1 7.9 8.8 8.2 8.6 8.7 9.1 9.2 9.4 9.3 9.5 9.7 9.9 9.8
6.5 6.5 6.6 6.9 6.5 6.5 6.5 6.5 6.5 6.5 6.5 6.5 6.5 6.5 6.5 6.5 6.5 6.6 6.7 7.6 7.7 8.4 8.6 8.7 8.7 8.9 9.1 9.1 9.3 9.4 9.2 8.5 8.8 9.3 9.4 9.3 9.2 9.2 9.2 9.2 9.5 9.4 9.7 9.8
6.5 6.5 6.5 6.5 6.5 6.5 6.5 6.5 6.5 6.5 6.5 6.5 6.5 6.5 6.5 6.5 7.1 7.3 7.6 7.8 7.8 8.3 8.7 8.7 8.8 9.0 9.0 9.1 9.2 9.3 9.2 9.0 9.1 9.3 9.2 9.2 8.3 7.9 9.7 9.1 9.6 9.7 9.7 9.8
6.5 6.5 6.5 6.5 6.5 6.5 6.5 6.5 6.5 6.5 6.5 6.5 6.5 6.5 6.5 6.5 6.5 6.9 7.2 7.5 7.5 7.9 8.3 8.6 8.8 9.0 9.0 9.1 9.1 9.2 9.2 9.1 9.3 9.4 9.3 8.8 8.6 8.6 9.4 9.4 9.1 9.7 9.5 9.8
6.5 6.5 6.5 6.5 6.7 6.7 6.5 6.5 6.5 6.5 6.5 6.5 6.5 6.5 6.5 6.5 6.5 6.5 6.7 7.2 7.7 7.8 7.4 8.6 8.9 9.0 9.1 9.3 9.4 9.4 9.4 9.2 9.3 9.5 9.5 9.5 9.4 9.1 9.3 9.0 8.4 9.5 9.5 8.5
6.5 6.5 6.5 6.5 6.5 6.5 6.5 6.5 6.5 6.5 6.5 6.5 6.5 6.5 6.5 6.5 6.5 6.5 6.8 7.3 7.5 7.7 7.7 8.5 8.7 8.9 9.0 9.2 9.3 9.4 9.3 9.3 9.3 9.5 9.4 9.5 9.5 9.6 9.3 8.2 8.5 8.7 8.5 9.4
6.5 6.5 6.5 6.5 6.5 6.5 6.5 6.5 6.5 6.5 6.5 6.5 6.5 6.5 6.5 6.5 6.8 7.1 7.1 7.4 7.8 6.7 7.7 8.3 8.5 8.7 8.8 9.0 9.0 9.0 9.3 9.4 9.5 9.5 9.4 9.5 9.5 9.5 9.6 9.4 9.5 9.1 7.9 8.3
6.5 6.5 6.5 6.5 6.5 6.5 6.5 6.5 6.5 6.5 6.5 6.5 6.5 6.5 6.5 6.8 6.8 7.3 7.3 7.5 7.7 7.8 6.3 7.3 7.9 6.7 7.9 8.9 9.0 9.0 9.1 9.2 9.4 9.4 9.5 9.4 9.4 9.5 9.4 9.5 9.5 9.5 8.7 8.2
6.8 6.5 6.5 6.5 6.5 6.5 6.5 6.5 6.5 6.5 6.5 6.5 6.5 6.5 6.5 6.5 6.5 7.1 7.5 7.7 7.8 7.7 7.9 6.1 6.9 5.4 8.2 5.8 8.5 8.8 9.1 9.3 9.3 9.4 9.3 9.2 9.3 9.4 9.5 9.5 9.5 9.5 8.4 7.9
6.5 6.5 6.5 6.5 6.5 6.5 6.5 6.5 6.5 6.5 6.5 6.5 6.5 6.5 6.5 6.5 6.5 7.0 7.4 7.7 7.6 7.5 6.7 6.2 7.9 7.0 6.2 6.1 6.6 7.8 8.8 9.1 9.2 9.1 9.1 9.1 9.2 9.3 9.3 9.3 9.2 9.1 9.1 8.6
6.5 6.5 6.5 6.5 6.5 6.5 6.5 6.5 6.5 6.5 6.5 6.5 6.5 6.5 6.5 7.1 7.3 7.0 7.2 7.4 7.5 7.7 7.9 6.0 5.2 6.5 6.3 6.1 4.5 5.8 8.7 7.8 8.2 8.8 8.5 9.1 9.0 8.6 8.4 7.7 7.3 7.1 8.0 8.9
6.5 6.5 6.5 6.5 6.5 6.5 6.5 6.5 6.5 6.5 6.5 6.5 6.5 6.5 6.8 6.5 6.8 6.8 7.0 7.0 6.3 5.8 7.6 7.5 6.7 5.8 5.5 5.7 4.6 4.3 7.4 8.9 7.1 7.0 4.9 5.6 6.1 5.4 6.7 7.2 7.4 7.9 8.8 9.1
6.5 6.5 6.5 6.5 6.5 6.5 6.5 6.5 6.5 6.5 6.5 6.5 6.5 6.5 6.7 7.0 7.3 7.5 6.9 6.9 6.0 4.8 4.1 4.3 6.1 6.9 6.9 6.2 4.9 4.9 4.9 6.8 7.0 5.8 7.2 5.3 7.1 6.4 6.3 6.4 7.0 5.4 7.3 8.6
6.6 6.5 6.5 6.5 6.5 6.5 6.5 6.5 6.5 6.5 6.5 6.5 6.5 6.6 7.0 7.4 7.6 7.4 8.1 7.8 6.7 5.4 4.3 4.0 4.3 4.2 4.7 5.3 5.0 5.3 5.4 5.6 6.3 4.5 6.7 6.4 6.3 6.1 7.1 6.2 6.6 5.8 6.9 6.4
6.5 6.5 6.5 6.5 6.5 6.5 6.5 6.5 7.2 6.9 6.5 6.9 7.0 6.8 6.9 7.2 6.5 6.6 8.1 8.4 8.2 7.5 5.7 4.6 5.0 4.1 3.9 3.4 3.7 5.5 6.0 5.4 5.3 6.9 5.8 4.2 3.9 4.1 4.2 5.2 4.8 2.7 2.1 2.1
6.5 6.5 6.5 6.5 6.5 6.5 6.5 6.9 7.4 6.5 6.5 7.2 7.4 7.3 7.2 6.6 7.5 8.0 8.4 8.4 8.5 8.5 8.4 6.5 5.1 3.2 3.4 3.3 4.1 5.1 5.5 5.5 5.3 4.8 4.4 5.5 6.1 5.7 5.3 5.9 4.8 3.8 2.5 1.5
6.5 6.5 6.5 6.5 6.5 6.5 7.2 6.8 6.5 6.7 7.4 7.5 7.6 7.7 7.5 7.8 8.0 8.2 8.3 8.5 8.6 8.0 8.1 6.9 5.4 3.9 3.1 3.3 4.7 5.5 5.8 5.6 6.2 6.4 6.4 6.0 3.2 2.8 2.3 1.7 1.2 1.2 1.7 1.3
6.5 6.5 6.5 6.5 6.5 6.9 7.5 7.2 7.8 7.9 7.5 7.7 7.7 8.0 8.0 7.9 8.0 8.2 8.2 8.4 8.6 8.4 7.7 6.9 6.0 5.0 3.3 2.8 3.4 3.3 3.2 4.3 3.4 3.3 2.8 3.5 3.7 3.2 4.0 3.1 1.9 1.7 1.4 1.3
6.5 7.0 6.5 6.5 6.6 6.8 7.4 7.9 8.1 8.2 8.0 8.2 8.4 8.3 8.2 7.9 8.2 8.3 8.4 8.5 8.5 8.7 8.2 7.0 6.1 5.2 3.8 2.8 2.3 2.3 2.5 3.0 3.7 3.3 3.6 3.5 2.7 2.0 2.4 2.1 2.7 1.9 1.5 1.9
6.8 6.8 6.5 6.5 6.7 7.2 7.5 7.8 8.1 8.2 8.3 8.3 8.5 8.4 8.3 8.3 8.3 8.4 8.4 8.5 8.6 8.2 7.8 6.3 5.4 5.2 4.2 3.0 2.8 2.1 1.7 2.6 1.5 2.1 2.2 1.5 1.1 0.3 -0.3 -2.1 -1.7 -0.2 -1.8 -0.4
7.1 6.5 6.5 6.5 7.0 7.0 7.1 8.0 8.3 8.2 8.2 8.4 8.3 8.3 8.5 8.5 8.4 8.5 8.5 8.6 8.7 8.7 8.3 7.4 6.2 5.8 5.6 4.4 4.1 3.4 2.5 1.9 1.2 1.1 0.8 0.3 -0.0 -0.3 -0.2 -0.8 -1.7 -3.8 -3.5 -3.8
Wind_Speed
13 11 14 15 11 5 2 2 1 4 8 8 7 6 11 16 14 13 12 14 17 15 14 14 13 12 13 13 12 13 11 11 9 8 8 7 8 7 6 6 6 5 3 2
9 14 13 2 3 5 4 2 4 5 6 7 4 8 10 12 17 14 16 19 17 18 15 14 14 14 14 14 13 12 11 11 9 8 7 7 7 8 7 7 7 6 6 4
11 12 7 8 10 10 8 5 3 6 7 8 6 10 12 12 12 11 21 20 20 18 16 16 15 15 14 14 14 13 11 12 11 10 7 6 4 4 5 5 6 9 7 5
8 4 11 11 12 11 10 4 2 1 6 4 4 2 12 14 16 14 22 19 18 19 17 16 17 16 16 15 14 13 12 12 12 11 10 10 9 8 7 7 5 6 8 5
6 8 12 12 11 9 3 1 5 5 8 9 8 7 7 14 17 19 22 22 21 19 17 16 17 17 16 15 15 14 12 12 13 13 10 8 9 7 7 6 7 5 7 7
1 1 7 12 12 10 4 6 5 6 7 10 3 9 6 8 16 16 22 22 21 20 18 17 16 16 15 15 14 14 14 12 12 11 11 12 11 7 7 8 7 7 8 7
10 12 9 7 11 10 11 11 8 6 6 6 2 6 8 3 3 11 17 23 20 20 19 18 16 16 16 16 16 14 15 15 13 13 12 12 10 11 9 7 8 6 7 7
7 10 14 13 16 10 15 16 10 4 6 6 3 5 7 8 6 9 13 16 21 22 20 19 18 17 18 17 17 16 16 15 15 14 13 11 9 6 8 9 6 7 6 7
4 3 8 6 11 10 13 11 13 5 12 6 6 5 8 3 8 2 8 12 18 23 20 20 19 18 18 17 17 17 16 15 15 16 13 12 10 11 10 7 8 7 7 6
2 3 7 7 6 9 11 9 9 9 4 5 5 2 8 11 10 5 7 8 13 19 16 17 17 18 17 17 17 16 16 16 15 14 13 11 12 12 10 8 10 10 6 8
5 6 7 10 10 9 8 11 9 2 6 3 3 3 7 8 9 9 4 6 12 15 15 16 15 16 17 16 16 16 15 16 16 15 14 13 12 12 10 9 9 10 8 8
4 6 6 6 3 4 9 12 12 6 8 3 5 2 5 6 7 10 4 4 4 5 10 13 10 11 13 16 15 15 15 15 16 15 14 14 13 11 12 10 10 9 8 9
3 4 6 12 10 6 8 7 12 12 11 12 9 4 5 6 7 10 9 3 4 13 11 7 9 7 8 13 14 14 14 15 14 14 14 14 13 13 12 12 10 10 9 9
4 4 9 7 8 4 4 7 8 12 12 12 6 2 5 9 9 11 11 8 2 5 14 11 6 6 9 4 11 11 13 13 12 13 14 14 14 14 13 12 11 11 9 9
5 6 5 4 2 4 5 0 1 5 8 8 9 3 9 10 8 9 10 8 3 5 5 0 11 6 3 2 3 4 6 9 10 12 12 13 13 13 13 12 12 11 11 10
2 1 6 3 3 3 9 5 4 6 1 0 2 4 7 6 9 10 11 11 1 6 6 8 6 10 10 7 1 5 5 4 5 10 12 11 11 12 12 12 13 12 12 11
4 1 5 5 6 4 10 9 5 3 2 5 8 8 2 4 6 8 9 10 10 13 4 10 12 6 3 5 3 3 8 7 9 9 8 8 8 9 13 13 12 13 13 12
4 4 3 2 6 11 5 3 1 3 1 2 4 3 2 4 5 6 7 6 8 9 9 9 3 4 4 5 5 6 7 9 8 7 10 8 9 9 11 12 12 7 11 12
3 6 4 7 11 3 6 5 6 6 7 3 2 4 1 1 4 6 5 4 5 5 5 4 5 4 4 5 4 10 9 6 6 6 10 10 6 8 12 10 11 7 6 2
4 5 7 6 9 8 6 6 1 1 9 9 2 2 1 3 7 9 4 4 4 3 3 5 6 4 4 5 7 7 8 6 5 7 7 2 2 6 6 7 9 4 6 7
8 7 10 9 9 5 6 6 4 8 3 5 2 2 1 3 6 5 4 4 4 5 5 6 6 5 6 7 6 3 4 7 4 4 4 5 6 9 8 9 6 7 6 6
5 5 5 4 5 8 9 7 6 5 4 4 3 3 4 4 3 3 3 3 4 4 5 6 5 6 6 6 4 1 6 5 1 1 5 3 6 5 4 7 7 6 4 6
6 4 5 4 4 4 7 4 4 2 5 4 4 3 2 4 3 2 1 3 3 4 4 5 5 6 7 7 6 7 5 5 7 8 10 9 7 7 6 6 6 5 5 5
6 3 5 3 9 5 7 5 4 5 6 6 7 4 2 1 4 4 2 2 4 4 5 5 5 7 7 7 6 5 4 6 8 10 10 8 8 8 8 6 5 4 5 5
3 8 7 6 3 5 7 8 10 8 8 8 7 5 4 2 3 3 3 3 3 3 5 6 6 6 7 6 7 5 5 7 8 8 8 7 6 7 7 7 6 5 5 3
7 7 8 6 8 8 6 13 13 13 12 10 8 7 5 2 3 4 4 4 3 4 5 5 6 6 8 8 8 8 6 6 7 7 6 5 5 5 5 5 6 16 9 13
Wind_Direction
192 207 213 192 225 13 39 334 1 124 168 197 206 209 182 193 202 215 234 230 193 208 179 170 176 173 171 171 176 172 169 161 159 163 165 166 172 164 176 179 155 157 155 150
179 222 202 73 183 224 231 170 111 120 159 243 200 207 180 195 209 214 227 240 208 202 186 177 180 176 178 179 183 177 183 175 180 165 170 177 171 175 174 179 172 181 187 187
205 204 107 199 195 216 227 267 139 348 184 229 246 226 181 204 190 210 222 228 220 200 196 180 188 184 182 179 185 180 189 181 192 174 168 168 135 122 175 173 195 183 195 205
226 117 203 205 210 229 220 197 218 223 256 309 226 292 196 186 196 207 206 218 214 207 201 186 189 191 187 180 185 178 186 187 190 192 181 179 179 180 184 184 189 168 185 181
131 186 202 215 219 212 337 214 192 273 272 285 212 259 121 178 202 198 212 210 208 200 206 200 191 190 191 180 182 181 184 184 189 193 201 180 219 174 187 168 169 217 171 194
75 278 219 225 224 217 111 203 224 255 271 261 206 253 122 165 228 210 201 210 210 205 199 199 199 190 193 184 187 181 181 188 197 196 203 206 203 207 189 189 189 191 188 193
188 204 205 232 219 213 208 224 236 233 222 258 84 255 67 80 260 244 205 203 208 212 196 201 194 193 193 189 190 186 186 191 193 200 204 204 209 204 205 197 221 203 195 202
230 175 201 199 232 200 216 235 251 255 277 315 161 227 110 44 350 240 241 209 203 216 204 199 190 194 192 192 195 191 190 197 193 203 211 214 210 208 227 208 232 218 221 205
198 152 163 224 219 250 190 235 278 278 287 257 170 142 160 21 12 324 209 213 197 208 214 196 189 196 191 191 196 196 192 199 203 207 210 217 214 227 224 218 207 225 261 225
53 202 179 160 198 220 277 225 215 230 276 265 149 156 59 356 358 353 246 218 220 190 215 199 195 196 193 192 193 198 197 197 200 208 207 211 214 217 225 219 214 237 219 244
308 265 132 174 209 186 187 221 248 256 288 291 283 358 20 4 355 338 245 224 188 193 205 206 200 199 194 194 195 195 199 199 201 206 208 215 213 219 219 219 222 219 234 236
17 288 180 157 98 212 297 282 180 181 271 250 224 148 38 27 14 4 45 196 184 165 182 212 205 214 205 197 200 196 196 201 206 205 208 210 216 222 220 221 224 226 211 213
358 267 235 186 172 175 214 228 263 279 127 253 268 94 79 41 20 28 18 9 204 174 184 184 197 198 222 210 206 199 202 203 203 206 207 212 215 221 229 223 225 224 227 230
258 264 290 298 343 110 177 228 234 261 259 255 226 348 61 37 25 9 2 355 317 207 180 205 232 203 207 246 227 205 206 208 208 207 211 215 218 220 224 225 225 226 226 231
293 275 282 319 281 242 144 116 222 259 339 315 75 58 42 24 8 18 0 339 203 152 90 149 198 180 183 144 242 221 227 229 222 217 223 221 224 225 224 223 222 225 224 224
283 257 260 173 137 242 217 208 146 261 58 141 338 105 51 37 45 29 17 6 68 149 155 158 133 170 177 172 354 304 236 216 257 248 241 240 234 232 229 227 218 218 222 220
287 285 249 232 174 225 218 189 207 277 171 301 296 69 111 62 52 39 26 21 5 16 216 187 187 208 214 222 189 256 277 288 253 241 241 236 234 235 235 228 227 225 225 227
257 259 267 235 220 230 77 122 312 273 221 115 125 83 77 80 101 82 57 27 19 15 8 7 20 189 235 203 203 225 243 269 249 253 247 235 243 236 241 239 224 210 237 230
262 257 205 260 226 194 164 190 205 233 177 167 136 149 72 48 193 109 61 62 38 18 2 339 335 339 334 297 279 256 203 211 247 229 256 243 248 261 253 244 226 195 203 207
215 235 266 226 274 252 46 99 155 255 250 157 181 133 238 279 262 92 94 46 36 35 28 359 5 351 344 332 305 257 187 177 214 217 233 203 135 247 234 236 182 175 143 131
203 242 245 232 244 254 106 134 171 227 79 119 129 86 177 300 21 80 79 74 49 14 11 17 20 12 346 328 306 66 126 149 182 212 120 200 205 206 202 204 192 173 156 135
232 234 208 242 260 250 136 146 242 70 122 115 93 86 82 88 111 100 63 41 54 40 13 20 19 8 2 346 310 165 72 64 98 172 192 161 87 89 101 90 77 45 93 108
236 253 344 273 41 88 168 49 104 196 139 118 118 117 120 138 150 114 40 45 54 65 51 38 19 30 22 12 23 74 20 68 87 85 80 79 72 66 70 95 83 82 95 118
183 196 244 219 164 167 183 184 186 174 135 118 109 113 123 145 149 162 161 74 41 44 50 57 48 49 43 32 44 72 64 85 107 95 92 88 85 82 72 61 82 93 97 98
359 159 209 226 158 178 203 203 179 171 149 131 122 113 108 131 146 154 145 123 93 58 60 59 56 57 54 43 56 62 84 110 96 91 94 91 92 85 85 68 45 67 42 41
184 221 216 236 157 216 179 191 187 179 173 166 150 129 117 109 127 151 139 120 119 112 106 91 82 71 61 55 54 62 70 85 96 93 87 85 89 92 98 100 86 51 59 74